Home > Weather > Tangier > Past weeks

Flag for Morocco Past Weather in Tangier, Morocco — Yesterday and Last 2 Weeks

Now
91 °F

Scattered clouds.


Feels Like: 93 °F
Forecast: 67 / 87 °F
Wind: 7 mph from East

Location: Tanger Aerodrome

Current Time: Aug 28, 2016 at 11:46:30 AM

Latest Report: Aug 28, 2016 at 11:00 AM


Visibility: 5 mi

Pressure: 30.07 "Hg

Humidity: 41%

Dew Point: 64 °F

Location of TangierLocation

Past Weather in Tangier — Graph

°F

Tangier Temperature Yesterday

Maximum temperature yesterday: 90 °F (at 2:00 PM)
Minimum temperature yesterday: 75 °F (at 5:00 AM)
Average temperature yesterday: 82 °F

High & Low Weather Summary for the Past Weeks

 TemperatureHumidityPressure
High91 °F (Aug 22, 3:00 PM)88% (Aug 19, 12:00 AM)30.09 "Hg (Aug 19, 12:00 AM)
Low61 °F (Aug 21, 6:00 AM)30% (Aug 23, 3:30 PM)29.80 "Hg (Aug 25, 6:30 PM)
Average79 °F61%29.97 "Hg
* Reported Aug 13 10:00 AM — Aug 28 10:30 AM, Tangier, Weather by CustomWeather, © 2016

Note: Actual official high and low records may vary slightly from our data, if they occured in-between our weather recording intervals... More about our weather records

Advertising

Tangier Weather History for the Previous 24 Hours

Scroll right to see more
 ConditionsComfort  
Time TempWeatherWind HumidityBarometerVisibility
10:30 AM
Sun, Aug 28
90 °FScattered clouds.7 mph46%30.07 "Hg5 mi
10:00 AM86 °FScattered clouds.7 mph52%30.07 "Hg5 mi
9:30 AM82 °FScattered clouds.9 mph58%30.07 "Hg5 mi
9:00 AM81 °FScattered clouds.12 mph66%30.07 "Hg5 mi
8:30 AM79 °FScattered clouds.9 mph70%30.07 "Hg5 mi
8:00 AM77 °FScattered clouds.9 mph69%30.04 "Hg5 mi
7:30 AM75 °FPassing clouds.7 mph74%30.04 "Hg5 mi
7:00 AM75 °FPassing clouds.6 mph74%30.04 "Hg5 mi
6:30 AM75 °FPassing clouds.8 mph74%30.04 "HgN/A
6:00 AM73 °FPassing clouds.6 mph78%30.04 "Hg5 mi
5:30 AM72 °FPassing clouds.3 mph73%30.04 "Hg5 mi
5:00 AM73 °FPassing clouds.No wind74%30.04 "Hg5 mi
4:30 AM73 °FClear.3 mph74%30.04 "Hg10 mi
4:00 AM73 °FClear.5 mph74%30.04 "Hg10 mi
3:30 AM75 °FClear.5 mph69%30.04 "Hg10 mi
3:00 AM77 °FClear.12 mph69%30.01 "Hg10 mi
2:00 AM77 °FClear.13 mph65%30.01 "Hg10 mi
1:30 AM77 °FClear.13 mph65%30.01 "Hg10 mi
1:00 AM77 °FClear.10 mph65%30.01 "Hg10 mi
12:30 AM77 °FClear.10 mph65%30.01 "Hg10 mi
12:00 AM79 °FClear.12 mph61%30.01 "Hg10 mi
11:30 PM
Sat, Aug 27
79 °FClear.14 mph61%30.01 "Hg10 mi
11:00 PM79 °FClear.12 mph61%30.01 "Hg10 mi
10:30 PM81 °FClear.9 mph58%30.01 "Hg10 mi
10:00 PM81 °FClear.13 mph58%30.01 "Hg10 mi
9:30 PM81 °FClear.13 mph62%30.01 "Hg10 mi
9:00 PM81 °FClear.14 mph58%30.01 "Hg10 mi
8:30 PM82 °FClear.13 mph55%29.98 "Hg10 mi
8:00 PM84 °FClear.14 mph51%29.98 "Hg10 mi
7:30 PM82 °FSunny.12 mph55%29.98 "Hg10 mi
7:00 PM84 °FSunny.17 mph51%29.98 "Hg10 mi
6:30 PM84 °FPassing clouds.18 mph51%29.98 "HgN/A
6:00 PM86 °FPassing clouds.18 mph49%29.98 "HgN/A
5:30 PM86 °FPassing clouds.18 mph49%29.98 "HgN/A
5:00 PM88 °FPassing clouds.20 mph46%29.98 "HgN/A
4:30 PM88 °FPassing clouds.20 mph46%29.98 "HgN/A
4:00 PM88 °FPassing clouds.20 mph46%29.98 "HgN/A
3:30 PM88 °FPassing clouds.20 mph46%29.98 "HgN/A
3:00 PM88 °FPassing clouds.22 mph49%29.98 "HgN/A
2:30 PM90 °FPassing clouds.20 mph43%30.01 "HgN/A
2:00 PM90 °FPassing clouds.20 mph43%30.01 "HgN/A
1:30 PM88 °FPassing clouds.18 mph49%30.01 "HgN/A
1:00 PM88 °FPassing clouds.20 mph49%30.01 "HgN/A
12:30 PM88 °FPassing clouds.20 mph49%30.01 "HgN/A
12:00 PM88 °FPassing clouds.18 mph49%30.01 "HgN/A
11:30 AM88 °FPassing clouds.18 mph49%30.01 "HgN/A
11:00 AM88 °FPassing clouds.16 mph46%30.01 "HgN/A
Weather by CustomWeather, © 2016

See weather overviewHow to use our weather pages